Location: Siratepeler Tepesi
(39.1042°N, 32.0781°E)
Time: 01:41:54
(UTC+00:00)

BREEZE-M DEB (TANK) - Pass Details

Date: 11 April 2026
Orbit: 326 x 14621 km, 49.6° (Epoch: 13 May)

Event Time Altitude Azimuth Distance (km) Brightness Sun altitude
Rises 18:47:39 0° 301° (WNW) 5,456 9.7 -25.9°
Reaches altitude 10° 18:52:49 10° 306° (NW) 3,088 8.1 -26.7°
Enters shadow 18:57:49 42° 347° (NNW) 835 4.5 -27.5°
